Location: Cansler Cemetery
(37.0439°N, 87.5644°W)
Time: 01:21:36
(UTC+00:00)

Daily predictions for brighter satellites

Satellite Brightness Start Highest point End
(mag) Time Altitude Azimuth Time Altitude Azimuth Time Altitude Azimuth
Cosmos 1980 Rocket 3.1 01:26:22 10° SSE 01:30:57 26° ESE 01:35:34 10° NE
RESURS DK-1 4.3 01:30:53 10° ESE 01:32:00 11° E 01:33:06 10° E
ASTRO E2 3.5 01:29:37 10° WSW 01:33:11 34° S 01:36:45 10° ESE
SL-4 R/B 3.7 01:29:43 10° NNW 01:33:44 29° NNE 01:37:33 10° E
Cosmos 1400 Rocket 4.4 01:32:37 10° NNW 01:36:11 35° W 01:39:45 10° SSW
Spot 2 3.9 01:34:47 10° SSE 01:38:49 75° ENE 01:42:51 10° N
Cosmos 1570 Rocket 4.0 01:34:14 10° NNW 01:39:29 76° ENE 01:44:44 10° SSE
H-2A R/B 2.1 01:36:48 10° NNE 01:40:47 49° E 01:44:47 10° S
Cosmos 2369 4.2 01:35:52 10° S 01:41:01 38° ESE 01:46:12 10° NE
Cosmos 1814 Rocket 4.2 01:37:00 10° NNW 01:42:07 75° WSW 01:47:13 10° S
Cosmos 1486 Rocket 4.1 01:37:23 10° S 01:42:34 56° ESE 01:47:44 10° NNE
Cosmos 1328 Rocket 3.5 01:38:24 10° S 01:42:38 64° E 01:46:55 10° NNE
MetOp-A 3.3 01:44:28 10° SSE 01:48:33 86° ENE 01:52:25 10° NNW
Cosmos 1697 Rocket 2.7 01:43:46 10° SSW 01:49:26 83° ESE 01:55:07 10° NNE
Cosmos 405 3.4 01:50:38 10° N 01:53:54 41° E 01:56:36 14° SSE
Cosmos 389 Rocket 4.0 01:52:23 10° NNE 01:55:04 20° ENE 01:56:49 15° ESE
Cosmos 2360 4.2 01:50:21 10° SSW 01:56:01 88° ESE 02:01:45 10° NNE
CZ-4B R/B 1.5 01:54:43 10° NNE 01:57:46 44° E 02:00:45 10° S
ATLAS 2AS CENTAUR R/B 3.2 01:53:04 10° S 02:00:26 47° ESE 02:07:42 10° NE
Cosmos 1515 3.8 01:57:14 10° S 02:00:54 52° E 02:04:34 10° NNE
Cosmos 1151 Rocket 4.3 01:58:10 10° SSW 02:02:14 43° W 02:06:19 10° N
USA 186 3.7 02:00:57 10° SSW 02:02:50 19° W 02:04:41 10° NW
Cosmos 2297 Rocket 2.4 01:57:53 10° NNW 02:03:33 75° WSW 02:09:09 10° SSE
JB-3 4.5 02:00:12 10° N 02:04:22 84° WNW 02:08:30 10° SSW
NOSS 3-4 (A) 4.3 02:00:03 10° SW 02:05:30 50° NW 02:11:21 10° NNE
NOSS 3-4 (C) 4.3 02:00:03 10° SW 02:05:33 50° NW 02:11:26 10° NNE
OBJECT-B 3.5 02:04:12 10° SW 02:05:57 15° W 02:07:42 10° WNW
COBE Rocket 4.1 02:01:09 10° S 02:06:15 77° W 02:11:17 10° NNW
Cosmos 1340 2.6 02:06:49 10° S 02:10:29 63° E 02:14:11 10° NNE
CZ-4 R/B 4.4 02:09:15 10° WSW 02:10:30 11° W 02:11:47 10° WNW
Cosmos 1503 Rocket 4.0 02:06:44 10° S 02:11:53 61° ESE 02:17:07 10° NNE
Cosmos 1933 Rocket 4.3 02:07:58 10° N 02:12:07 36° ENE 02:14:37 20° SE
Resurs 1-3 4.0 02:09:31 10° S 02:13:51 63° W 02:18:12 10° NNW
Cosmos 1666 Rocket 4.3 02:09:53 10° NNW 02:14:11 53° W 02:18:29 10° S
H-2A R/B 4.2 02:13:30 10° SSW 02:17:26 32° W 02:21:19 10° NW
SJ 16-02 1.7 02:15:43 14° SSE 02:19:06 41° ESE 02:23:13 10° NNE
SL-16 R/B 3.7 02:18:46 16° ESE 02:19:13 16° E 02:22:35 10° ENE
Cosmos 1315 Rocket 3.9 02:15:44 10° NNW 02:19:35 43° W 02:23:22 10° SSW
Cosmos 1072 Rocket 4.4 02:13:41 10° S 02:19:45 77° E 02:25:53 10° N
Cosmos 1633 Rocket 3.8 02:17:53 10° NNW 02:22:08 52° W 02:26:21 10° S
SPOT 1/Viking Rocket 3.6 02:22:07 19° SSE 02:25:49 66° ENE 02:30:56 10° N
Cosmos 1743 2.6 02:24:34 10° N 02:28:19 67° E 02:30:10 28° SSE
Cosmos 1470 Rocket 3.7 02:29:31 10° NNW 02:33:49 70° W 02:37:01 17° S
Meteor 1-27 Rocket 4.1 02:28:27 10° SSW 02:34:10 70° W 02:40:02 10° N
OAO 3 Rocket 3.3 02:34:33 10° W 02:39:23 58° SSW 02:41:32 31° SE
Cosmos 2278 3.6 02:33:58 10° S 02:39:31 64° ESE 02:45:08 10° NNE
Resurs 01 Rocket 1.9 02:39:24 20° S 02:42:23 64° WSW 02:46:46 10° NNW
Cosmos 2219 3.6 02:37:38 10° NNW 02:43:08 58° WSW 02:47:00 20° S
Cosmos 1515 Rocket 4.5 02:39:11 10° SSW 02:43:23 48° W 02:47:39 10° N
Ariane Rocket 2.9 02:40:48 24° SSE 02:43:58 88° WSW 02:49:04 10° NNW
SPOT 5 3.9 02:43:22 26° ESE 02:45:19 35° ENE 02:49:58 10° N
Terra 3.3 02:44:34 20° E 02:45:45 22° ENE 02:49:22 10° NNE
Cosmos 2034 Rocket 3.9 02:42:42 14° S 02:48:16 82° E 02:54:37 10° N
Cosmos 2082 3.6 02:44:12 10° NNW 02:49:50 79° ENE 02:52:31 32° SSE
Cosmos 921 Rocket 3.0 02:46:48 10° N 02:51:18 72° ENE 02:52:47 41° SSE
ISS -1.2 02:49:27 10° NNW 02:51:26 15° NNE 02:53:04 11° NE
Cosmos 1378 3.8 02:52:06 36° E 02:52:06 36° E 02:55:15 10° NNE
Cosmos 2263 Rocket 2.9 02:47:00 10° N 02:52:13 39° ENE 02:54:16 29° ESE
SWAS 4.5 02:51:35 10° NNW 02:55:53 67° ENE 02:56:57 47° SE
CARTOSAT-1 3.4 02:54:34 41° SSE 02:56:01 79° ENE 03:00:19 10° N
Cosmos 2228 Rocket 3.0 02:58:45 39° S 03:00:25 74° E 03:04:58 10° N
Cosmos 1869 Rocket 3.6 02:57:48 10° N 03:02:15 62° E 03:03:11 49° SE
Okean 1 3.6 03:02:18 29° SSW 03:04:09 65° W 03:08:09 10° N
Cosmos 2344 4.3 02:58:26 10° SW 03:05:51 52° NW 03:13:10 10° NNE
Cosmos 1536 4.4 03:02:57 10° NNW 03:06:32 31° W 03:08:52 18° SW
NOSS 2-1 (C) 3.4 03:07:58 46° NE 03:07:58 46° NE 03:10:17 10° NE
RESURS DK-1 3.1 03:05:28 10° SW 03:09:27 51° WNW 03:13:29 10° NNE
Cosmos 2227 Rocket 3.7 03:05:43 10° NW 03:10:31 29° WSW 03:14:17 15° SSW
Cosmos 783 Rocket 4.4 03:06:04 10° NNW 03:11:16 77° ENE 03:12:42 48° SE
SL-4 R/B 2.4 03:09:09 10° WNW 03:13:31 53° SW 03:13:57 50° SSW
Cosmos 1980 Rocket 3.6 03:09:29 10° SW 03:14:42 38° WNW 03:19:58 10° N
USA 245 4.4 03:12:37 34° S 03:15:16 78° WSW 03:21:38 10° NNW
Cosmos 1777 Rocket 4.3 03:13:05 14° SSW 03:17:27 66° WNW 03:22:40 10° NNE
NOSS 2-1 (D) 3.4 03:18:12 53° NNE 03:18:12 53° NNE 03:20:44 10° NNE
Spot 2 Rocket 3.4 03:16:25 51° SE 03:17:38 74° ENE 03:22:40 10° N
Cosmos 2195 Rocket 4.5 03:13:47 10° N 03:20:08 73° E 03:22:17 43° SSE
SPOT 3 Rocket 3.8 03:18:44 37° SSW 03:20:40 64° WSW 03:25:47 10° NNW
Cosmos 1707 Rocket 3.5 03:22:35 67° ESE 03:22:43 68° E 03:27:07 10° NNE
Cosmos 2322 Rocket 2.5 03:23:15 43° ESE 03:23:15 43° ESE 03:28:28 10° NE
ARIANE 5 R/B 3.2 03:23:46 41° ENE 03:23:51 41° ENE 03:28:04 10° N
Cosmos 773 Rocket 3.9 03:19:25 10° NNW 03:24:37 81° WSW 03:25:48 54° S
BREEZE-M DEB (TANK) 4.2 03:23:10 10° NNW 03:25:12 19° NE 03:26:21 17° ENE
USA 215 4.0 03:21:00 10° ENE 03:25:34 32° ESE 03:25:34 32° ESE
Cosmos 1428 Rocket 4.4 03:21:19 10° N 03:27:39 77° E 03:29:35 47° SSE
Cosmos 2333 Rocket 4.3 03:31:12 12° ENE 03:31:12 12° ENE 03:32:08 10° ENE
Meteor 2-4 Rocket 3.7 03:28:29 42° S 03:30:35 90° E 03:36:18 10° N
Cosmos 44 Rocket 3.5 03:31:27 10° NNW 03:36:03 52° ENE 03:36:16 51° ENE
Cosmos 1975 2.9 03:32:36 10° N 03:36:17 72° N 03:36:17 72° N
Helios 1A Rocket 3.7 03:43:33 42° WSW 03:43:37 42° W 03:47:25 10° NNW
Cosmos 2219 Rocket 4.3 03:49:50 13° ENE 03:49:50 13° ENE 03:50:45 10° ENE
Cosmos 158 Rocket 3.8 03:42:58 10° NNW 03:48:10 87° WSW 03:48:35 76° S
Cosmos 1092 Rocket 4.1 03:42:49 10° NNW 03:48:56 67° W 03:50:44 46° SSW
Cosmos 1634 Rocket 4.2 03:48:31 38° SSW 03:50:59 67° W 03:57:09 10° N
ATLAS 2AS CENTAUR R/B 4.2 03:44:17 10° WSW 03:51:30 40° NW 03:58:35 10° NNE
USA 81 4.2 03:51:32 57° SW 03:52:27 70° W 03:57:43 10° N
ERS-1 Rocket 3.2 03:52:28 54° SW 03:53:03 58° W 03:58:01 10° NNW
Cosmos 2227 4.0 03:49:22 10° NNW 03:55:10 87° ENE 03:55:45 73° SSE
Cosmos 2142 Rocket 4.4 03:54:38 58° S 03:56:01 86° E 04:02:26 10° N
Cosmos 1733 Rocket 3.3 03:52:12 10° N 03:56:04 66° N 03:56:04 66° N
Meteor 2-15 Rocket 4.3 03:56:14 64° S 03:57:16 87° E 04:03:22 10° N
SJ 16-02 4.1 03:55:11 10° W 03:57:50 16° WNW 04:00:30 10° NNW
SL-16 R/B 2.6 04:00:33 36° SW 04:02:42 60° WNW 04:08:20 10° NNE
Cosmos 2237 4.1 04:04:12 73° SSW 04:04:48 87° WNW 04:10:34 10° NNE
Cosmos 1862 Rocket 4.0 04:05:57 60° NW 04:05:57 60° NW 04:10:01 10° N
Cosmos 1538 Rocket 3.9 04:00:33 10° NNW 04:05:40 84° WNW 04:05:40 84° WNW
Geosat 4.4 04:09:12 52° ENE 04:09:12 52° ENE 04:13:59 10° NNW
Cosmos 1346 Rocket 4.4 04:11:56 30° WNW 04:11:56 30° WNW 04:15:28 10° NNW
Cosmos 1655 Rocket 4.3 04:12:51 10° N 04:18:53 50° E 04:18:59 50° E
ATLAS 3B R/B 2.9 04:13:24 10° NNW 04:20:53 79° ENE 04:22:21 61° SE
Cosmos 1937 Rocket 4.2 04:23:08 44° NE 04:23:08 44° NE 04:26:57 10° NNE
Terra 3.0 04:23:27 35° W 04:23:27 35° W 04:27:36 10° NNW
Cosmos 923 Rocket 4.4 04:18:40 10° N 04:23:29 56° NE 04:23:29 56° NE
Cosmos 2360 Rocket 2.1 04:27:31 81° NNW 04:27:31 81° NNW 04:32:59 10° NNE
ISS -0.8 04:25:15 10° NW 04:25:58 15° NW 04:25:58 15° NW
Meteor 1-13 Rocket 4.3 04:34:10 68° W 04:34:10 68° W 04:39:43 10° N
Cosmos 2263 Rocket 3.6 04:31:24 10° NW 04:35:51 25° WSW 04:35:57 25° WSW
Okean 1-7 4.3 04:44:36 39° N 04:44:36 39° N 04:47:28 10° N
Cosmos 1680 Rocket 4.0 04:40:12 10° NNW 04:44:38 57° NNE 04:44:38 57° NNE
Cosmos 2266 Rocket 3.9 04:43:34 10° N 04:49:37 85° NNW 04:49:37 85° NNW
Cosmos 1898 Rocket 4.2 04:52:43 50° WNW 04:52:43 50° WNW 04:57:47 10° N
Iridium 4 Rocket 4.1 04:49:18 10° N 04:52:48 51° N 04:52:48 51° N
Cosmos 1818 4.2 04:49:46 10° NNW 04:54:36 50° NE 04:54:36 50° NE
ATLAS CENTAUR R/B 3.0 04:58:19 10° NNW 05:01:48 36° NNE 05:01:48 36° NNE
Cosmos 2322 Rocket 4.0 05:04:58 19° W 05:07:23 25° WNW 05:11:56 10° N
USA 215 3.6 05:03:36 10° NE 05:10:02 60° NW 05:12:52 34° WSW
Cosmos 2322 4.1 05:13:04 61° NNE 05:13:04 61° NNE 05:17:46 10° NNE
Cosmos 2333 Rocket 2.6 05:13:10 60° NW 05:13:10 60° NW 05:18:16 10° NNE
ADEOS Rocket 3.5 05:13:15 45° ENE 05:13:15 45° ENE 05:18:31 10° N
Cosmos 1844 Rocket 3.3 05:10:13 10° NNW 05:14:32 50° WNW 05:14:32 50° WNW
Cosmos 2219 Rocket 2.7 05:31:30 55° NNW 05:31:30 55° NNW 05:36:20 10° NNE
Cosmos 1553 Rocket 4.1 05:42:09 68° NE 05:42:09 68° NE 05:47:36 10° N
USA 267 4.1 05:38:54 25° E 05:42:16 44° NE 05:48:25 10° NW
NOSS 0 Rocket 4.1 05:56:55 65° NE 05:56:55 65° NE 06:02:19 10° NNE
Cosmos 2237 Rocket 2.9 06:02:09 46° ENE 06:02:09 46° ENE 06:06:24 10° NNE
COSMOS 2428 3.5 06:05:45 43° NW 06:05:45 43° NW 06:10:52 10° N
Resurs 1-4 Rocket 4.3 06:07:50 10° ENE 06:10:14 15° E 06:10:14 15° E
CZ-4C R/B 3.0 06:05:43 10° NNW 06:13:23 86° ENE 06:14:45 67° SE
NOSS 3-1 (A) 4.2 06:08:19 10° NNW 06:16:10 78° ENE 06:18:26 54° SE
NOSS 3-1 (C) 4.2 06:15:25 10° NW 06:23:15 62° WSW 06:23:26 62° WSW
Cosmos 1745 Rocket 4.0 06:17:50 10° N 06:23:37 78° N 06:23:37 78° N
Cosmos 2278 Rocket 2.4 06:31:04 10° NNW 06:36:05 67° N 06:36:05 67° N
Cosmos 371 Rocket 4.4 06:41:23 38° NNW 06:41:23 38° NNW 06:44:54 10° N
Lacrosse 5 2.7 06:43:42 46° NE 06:43:42 46° NE 06:47:18 10° NE
Cosmos 883 Rocket 4.4 06:42:27 83° NW 06:42:27 83° NW 06:48:39 10° N
USA 32 4.4 06:44:30 61° N 06:44:30 61° N 06:48:49 10° N
ATLAS 5 CENTAUR R/B 3.0 06:38:09 10° NW 06:45:39 58° NNW 06:45:39 58° NNW
SL-16 R/B 2.8 06:49:47 46° E 06:49:47 46° E 06:54:41 10° NE
Cosmos 1980 4.3 06:53:24 46° WNW 06:53:24 46° WNW 06:58:37 10° N
SME Rocket 4.2 06:58:11 41° NE 06:58:11 41° NE 07:02:05 10° N
Meteor 2-10 Rocket 3.7 06:56:08 10° N 07:01:19 76° NNE 07:01:19 76° NNE
SL-16 R/B 3.8 07:01:09 22° ESE 07:04:25 36° ENE 07:10:01 10° N
MOZ.5/SAFIR/RUBIN 5/SL-8 4.2 07:09:27 59° N 07:09:27 59° N 07:13:20 10° N
Cosmos 1455 Rocket 3.9 07:07:30 10° N 07:10:49 49° N 07:10:49 49° N
EO 1 Delta rocket 4.4 07:09:01 10° N 07:13:11 55° NW 07:13:11 55° NW
Meteor 1-24 Rocket 3.6 07:14:11 77° E 07:14:11 77° E 07:19:41 10° NNE
Cosmos 2315 Rocket 4.3 07:17:55 50° W 07:18:10 51° W 07:24:22 10° N
Cosmos 1709 Rocket 4.1 07:12:21 10° NNW 07:18:05 54° W 07:18:05 54° W
COSMOS 2455 3.2 07:18:09 51° SE 07:18:31 52° ESE 07:24:21 10° NE
Cosmos 1975 Rocket 4.1 07:25:12 38° NW 07:25:12 38° NW 07:28:22 10° N
USA 267 3.5 07:26:11 47° W 07:26:11 47° W 07:31:31 10° NW
CZ-2D R/B 2.0 07:20:40 10° NNE 07:26:01 77° ESE 07:26:09 76° ESE
Cosmos 1025 Rocket 4.0 07:27:37 42° NNW 07:27:37 42° NNW 07:30:42 10° N
Cosmos 2184 Rocket 4.4 07:21:11 10° N 07:27:20 58° E 07:29:21 40° SE
Lacrosse 5 rocket 2.4 07:36:40 39° N 07:36:40 39° N 07:39:38 10° NNE
USA 229 DEB 4.3 07:33:12 10° NW 07:40:07 42° WSW 07:40:07 42° WSW
USA 229 4.3 07:33:17 10° NW 07:40:15 43° WSW 07:40:15 43° WSW
Meteor 2-5 Rocket 4.0 07:40:07 52° W 07:40:23 53° WNW 07:45:57 10° N
Cosmos 1943 4.4 07:41:37 28° SE 07:43:12 33° ESE 07:48:13 10° NE
Cosmos 2237 Rocket 4.0 07:43:57 18° WNW 07:45:16 19° NW 07:49:18 10° N
Cosmos 1703 4.3 07:45:42 39° E 07:45:42 39° E 07:49:17 10° NNE
UNK 3.9 07:48:50 58° ESE 07:49:31 67° ENE 07:54:05 10° N
CZ-4 R/B 4.0 07:45:33 10° N 07:49:56 56° WNW 07:49:56 56° WNW
Resurs 1-4 Rocket 2.2 07:45:42 10° N 07:50:53 60° WNW 07:51:19 57° W
Helios 1A 4.3 07:51:33 27° ESE 07:53:07 38° ENE 07:57:02 10° N
EO 1 Del DPAF 4.1 07:49:45 10° NNE 07:52:35 41° ENE 07:52:35 41° ENE
NOSS 3-3 (A) 4.1 07:52:29 45° SSE 07:53:36 52° ESE 07:59:30 10° NE
NOSS 3-3 (C) 4.1 07:52:35 44° SSE 07:53:43 51° ESE 07:59:35 10° NE
Nadezhda 1 Rocket 4.0 07:53:45 47° S 07:55:44 84° E 08:02:03 10° N
Cosmos 1544 Rocket 3.9 07:54:09 10° NNW 07:57:54 54° WNW 07:57:54 54° WNW
CZ-4C R/B 4.4 07:55:55 10° WNW 07:59:52 20° W 07:59:52 20° W
Cosmos 614 Rocket 4.3 07:56:36 10° NNW 08:01:47 66° ENE 08:04:35 27° SE
IDEFIX/ARIANE 42P 2.6 07:57:37 10° NNE 08:02:54 74° E 08:04:17 49° S
Cosmos 1943 Rocket 2.1 07:57:56 10° NNW 08:03:37 74° WSW 08:05:08 49° S
ADEOS II 2.0 07:58:58 10° NNE 08:04:14 88° WNW 08:05:23 57° SSW
Meteor 1-28 Rocket 3.5 08:06:01 58° E 08:06:18 61° ENE 08:09:59 10° N
MOS 1 Rocket 2.8 08:10:22 74° SSW 08:10:40 80° WSW 08:14:58 10° NNW
Cosmos 2297 3.6 08:05:20 10° NNW 08:11:06 84° WSW 08:13:59 31° SSE
IRS-1D 4.1 08:08:48 10° NNE 08:14:02 54° E 08:16:22 30° SSE
Cosmos 2251 Rocket 4.3 08:10:12 10° N 08:15:20 51° ENE 08:20:29 10° SE
Lacrosse 5 3.8 08:22:52 14° WNW 08:25:39 21° NNW 08:29:31 10° NNE
NPP 4.5 08:21:26 10° N 08:26:17 35° WNW 08:27:35 31° W
Cosmos 1455 3.6 08:25:27 10° NNW 08:27:34 24° WNW 08:27:34 24° WNW
CZ-2C R/B 4.5 08:26:54 10° NE 08:30:54 23° E 08:34:47 10° SSE
Cosmos 2341 Rocket 4.4 08:25:57 10° N 08:32:18 64° E 08:38:37 10° SSE
SL-16 R/B 3.7 08:31:39 19° W 08:33:36 23° WNW 08:38:04 10° N
Cosmos 2154 Rocket 4.1 08:27:39 10° NNW 08:33:50 56° W 08:36:42 31° SSW
Cosmos 2369 Rocket 2.3 08:28:16 10° NNW 08:33:51 73° ENE 08:39:25 10° SSE
Cosmos 1656 Rocket 4.2 08:30:10 10° NNW 08:35:31 58° ENE 08:40:51 10° SE
Cosmos 1271 Rocket 3.0 08:34:18 10° NNW 08:38:00 47° W 08:38:06 47° W
Meteor 1-21 Rocket 4.1 08:35:30 33° SSW 08:38:06 76° W 08:43:42 10° N
FALCON 9 R/B 4.3 08:16:58 10° WNW 08:42:03 44° SW 08:49:16 10° SSE
Cosmos 2228 3.0 08:40:04 10° NNW 08:44:22 62° W 08:45:55 36° SSW
BREEZE-M DEB (TANK) 3.2 08:42:55 28° WSW 08:45:22 60° NW 08:48:04 10° NE
SL-16 R/B 3.2 08:46:14 28° SW 08:47:57 33° W 08:53:29 10° NW
Cosmos 1603 3.8 08:53:55 28° SW 08:56:53 64° WNW 09:02:31 10° NNE
Cosmos 407 Rocket 3.8 08:52:52 10° NNW 08:58:11 71° ENE 09:03:23 10° SSE
Cosmos 1371 Rocket 4.0 08:55:16 23° SSW 08:58:35 83° ESE 09:03:46 10° NNE
Cosmos 2058 Rocket 3.8 08:56:57 10° N 09:01:13 52° E 09:05:27 10° SSE
Genesis I 4.4 08:57:58 10° NNW 09:01:52 45° NE 09:05:39 10° SE
MOS 1-B Rocket 4.0 08:58:09 10° SSE 09:03:45 76° ENE 09:09:28 10° N
COSMOS 2455 4.3 09:01:17 16° W 09:04:43 25° NW 09:09:38 10° N
CZ-2D R/B 4.1 09:03:02 10° NW 09:05:19 13° WNW 09:07:28 10° W
Cosmos 1140 Rocket 3.5 09:00:20 10° NNW 09:05:36 88° ENE 09:10:50 10° SSE
GPS 2-04 Rocket1 2.5 09:05:26 35° SW 09:06:33 54° SSE 09:10:00 10° E
SeaSat 1 4.0 09:03:20 10° NE 09:07:41 31° ESE 09:12:00 10° S
Cosmos 1328 4.3 09:06:30 28° SW 09:08:00 41° W 09:11:47 10° N
DNEPR-1 R/B 4.3 09:06:04 24° WSW 09:08:04 40° NW 09:12:19 10° NNE
Helios 1B rocket 2.4 09:10:28 10° N 09:14:30 67° WNW 09:17:16 19° SSW
Cosmos 1241 Rocket 4.4 09:12:18 19° SW 09:16:50 77° WNW 09:23:03 10° NNE
Cosmos 2218 Rocket 4.0 09:12:37 10° N 09:18:53 80° W 09:25:12 10° S
Cosmos 1825 3.1 09:17:13 10° SSE 09:20:46 45° E 09:24:20 10° NNE
Cosmos 1606 Rocket 4.2 09:17:29 10° NNW 09:21:29 35° W 09:24:16 17° SSW
CZ-3 R/B 4.3 08:33:11 10° WSW 09:24:44 66° S 09:36:26 10° ESE
OAO 2 Rocket 3.3 09:21:48 17° WSW 09:25:35 65° S 09:30:28 10° E
Cosmos 1943 4.2 09:23:26 16° WSW 09:27:09 32° WNW 09:32:13 10° N
Cosmos 2181 Rocket 4.3 09:25:17 14° SSW 09:30:33 48° W 09:36:30 10° N
Cosmos 1959 Rocket 4.5 09:25:27 10° NNW 09:31:37 65° W 09:37:40 10° S
Cosmos 1624 Rocket 4.3 09:27:34 15° SW 09:31:46 53° WNW 09:36:57 10° N
Meteor 1-11 4.4 09:26:55 12° SSW 09:32:15 58° W 09:37:57 10° N
SEDSat Delta rocket 4.3 09:28:00 15° WSW 09:33:33 51° S 09:39:59 10° E
Lacrosse 4 Rocket 1.4 09:31:42 13° SSW 09:35:33 89° W 09:39:48 10° NNE
ARIANE 5 R/B 2.5 09:31:04 10° NNE 09:36:08 86° ESE 09:41:07 10° SSW
IRS-1C 4.1 09:31:05 10° N 09:36:26 79° WNW 09:41:45 10° SSW
Cosmos 2098 4.0 09:33:34 10° N 09:36:32 72° W 09:39:38 10° S
Cosmos 1821 Rocket 4.5 09:31:03 10° N 09:37:26 68° E 09:43:46 10° SSE
Cosmos 1408 3.2 09:35:11 15° SW 09:37:51 38° W 09:41:16 10° N
ATLAS 3B CENTAUR R/B 3.6 09:37:51 10° S 09:40:02 14° SE 09:42:47 10° ESE
Cosmos 1892 3.1 09:37:51 13° SSW 09:41:02 42° W 09:44:39 10° N
ADEOS II 4.3 09:42:28 10° NW 09:43:04 10° WNW 09:43:42 10° WNW
Cosmos 2056 Rocket 4.1 09:39:27 13° SW 09:43:45 40° WNW 09:48:42 10° N
Okean 1-7 Rocket 3.6 09:39:41 10° SSW 09:44:03 62° W 09:48:25 10° N
Cosmos 1484 Rocket 3.7 09:42:21 10° NNE 09:46:08 50° E 09:49:56 10° S
FENGYUN 3A 4.0 09:42:26 10° N 09:47:37 50° WNW 09:52:47 10° SW
ALOS 2.6 09:45:45 10° N 09:50:15 50° WNW 09:54:44 10° SSW
CZ-2C R/B 4.1 09:52:57 10° SE 09:57:46 41° ENE 10:02:41 10° N
Cosmos 1602 Rocket 3.6 09:53:30 10° S 09:57:59 83° W 10:02:26 10° N
Cosmos 1190 Rocket 4.4 09:56:00 10° NNW 10:01:00 44° WSW 10:06:00 10° S
ATLAS 2A CENTAUR R/B 3.8 09:54:33 10° WSW 10:08:28 42° SSW 10:14:04 10° ESE
